Wind_Speed
20 18 18 19 19 19 18 18 17 16 15 14 14 14 13 12 12 11 11 10 10 10 10 10 10 11 11 10 10 10 11 10 11 12 11 12 12 13 13 13 13 13 13 14 15 16 17 18 17 17 16 16 16 16 15 15 14 14 14 15 15 14 14 14 13 13 14 14 14 14 13 13 13 14 14 13 13 13 13 13 13 13 12 13 13
18 17 16 18 18 17 17 16 15 14 13 12 12 12 11 10 10 10 10 9 9 9 8 8 9 9 9 9 9 9 10 10 11 12 11 11 11 11 12 13 14 14 13 14 15 16 16 17 17 16 16 15 15 14 14 14 13 13 13 14 14 14 14 14 13 13 14 14 14 14 13 12 13 13 13 13 12 12 12 12 12 12 11 11 11
16 16 15 16 16 15 14 13 12 11 10 10 10 9 8 8 8 8 8 8 8 7 6 6 7 8 9 9 8 8 9 10 11 11 10 10 10 11 11 12 13 14 13 13 14 15 16 17 16 15 15 15 15 13 13 13 13 13 13 14 14 14 14 14 13 13 13 13 13 13 12 12 12 12 12 12 12 12 11 11 11 10 9 9 8
16 15 15 15 15 14 12 11 10 9 9 8 8 7 6 6 6 6 6 7 7 6 6 6 7 8 8 9 8 7 9 10 11 10 9 9 10 10 11 12 13 14 14 13 13 14 15 16 15 15 14 14 14 13 12 12 12 13 13 14 14 14 13 13 13 13 13 13 13 12 12 12 11 11 11 11 11 10 10 9 9 8 7 7 7
16 16 15 15 14 13 12 10 9 8 7 7 6 5 5 5 5 5 5 6 6 5 6 6 8 8 8 9 9 8 9 10 10 9 8 9 10 10 11 12 12 13 14 13 13 14 15 15 15 14 13 13 13 13 12 12 12 12 13 13 13 13 13 12 13 13 12 12 12 12 12 11 10 10 11 10 10 9 9 8 7 7 7 7 7
15 15 15 14 13 12 10 9 8 7 6 5 5 5 5 5 5 5 5 5 5 5 6 7 8 8 9 9 8 8 10 10 10 9 8 9 9 9 11 12 12 13 13 14 14 14 15 15 14 14 13 12 13 12 12 12 12 12 12 12 13 12 12 12 12 12 12 12 12 11 11 11 10 10 10 9 8 8 7 7 7 7 7 7 8
15 14 14 13 12 10 9 7 6 5 5 5 5 5 5 5 5 5 5 6 6 6 7 7 8 9 9 9 9 9 9 9 9 9 9 9 9 9 11 13 13 13 13 13 14 14 15 15 14 14 13 12 12 12 12 12 12 12 11 11 12 12 11 12 11 11 11 12 11 10 10 10 10 10 10 9 8 7 7 7 7 8 9 9 10
15 14 13 11 10 9 7 6 4 4 4 5 5 6 5 5 5 5 6 7 7 8 9 9 10 10 9 9 10 10 9 9 10 10 10 10 10 10 12 13 14 14 14 13 13 14 14 14 14 13 13 12 12 11 11 12 12 11 11 11 11 11 11 11 11 11 11 11 11 10 10 9 9 9 9 9 8 8 7 8 9 10 12 12 13
14 13 12 10 8 7 6 5 4 4 5 6 6 5 5 5 6 7 7 7 7 8 9 9 10 11 10 10 10 10 10 9 10 10 10 10 10 11 12 13 15 15 15 14 13 13 13 13 13 13 12 12 11 11 11 11 12 11 10 10 10 10 10 11 11 11 10 10 10 9 9 9 9 8 8 9 9 9 9 10 12 13 15 15 16
13 12 11 9 7 6 6 5 5 5 5 6 6 6 6 6 6 7 7 7 7 8 9 9 10 11 11 11 10 10 10 10 10 10 10 11 11 12 13 14 15 16 15 14 13 13 13 13 13 12 12 11 11 11 10 11 12 10 10 10 10 10 10 11 11 10 10 9 9 8 9 9 9 10 9 10 10 11 12 13 14 16 17 18 18
13 12 10 9 7 7 6 6 6 5 6 6 6 7 7 7 6 6 7 7 7 7 9 9 11 12 12 12 11 11 12 11 11 10 11 13 13 13 14 15 16 16 15 14 13 13 13 13 13 12 12 11 11 11 11 11 12 10 9 10 10 10 11 11 10 10 9 9 9 9 9 10 10 11 11 12 12 13 14 16 17 18 19 19 20
13 11 10 8 7 8 7 6 6 6 6 6 6 7 7 7 7 7 8 8 8 8 9 11 12 13 13 13 12 12 12 12 12 12 13 14 14 15 16 16 17 17 15 14 14 14 14 14 14 14 13 13 13 13 12 12 13 11 9 11 10 10 11 10 10 10 9 9 9 10 11 11 12 13 14 14 14 15 17 18 19 19 20 20 20
12 11 9 8 7 8 7 6 6 6 6 6 6 7 7 7 7 8 9 9 9 10 11 12 12 14 14 13 13 12 13 12 14 14 14 15 16 17 17 18 18 17 15 14 14 15 15 15 15 15 15 14 14 14 14 13 13 12 11 12 11 10 10 11 11 10 9 10 10 12 13 13 14 15 15 16 17 17 18 19 20 20 20 21 21
12 11 9 8 7 7 7 6 7 7 7 7 7 7 7 7 8 10 11 10 10 12 13 13 13 14 14 14 14 13 13 13 14 15 15 17 17 18 19 19 18 17 15 14 15 15 15 15 16 17 17 17 17 16 15 14 13 11 11 12 11 10 10 11 12 12 12 12 13 14 15 16 16 17 17 18 18 19 19 20 21 21 22 22 22
11 10 9 9 8 8 7 8 8 8 8 8 8 8 8 9 10 12 12 11 12 13 14 15 15 16 16 15 16 15 15 16 16 16 18 19 19 19 19 19 17 16 15 15 15 15 16 17 18 19 19 19 18 16 14 12 11 10 11 12 11 10 10 11 13 14 14 15 15 15 17 18 18 19 19 19 20 20 21 21 22 22 22 22 22
11 10 10 9 9 9 9 9 9 9 9 9 9 9 10 11 13 13 13 13 14 14 15 17 17 17 17 16 17 18 17 18 19 19 20 21 20 19 19 18 16 15 15 16 16 17 18 19 19 20 19 18 17 15 13 12 11 10 11 12 11 11 11 12 14 15 15 16 16 17 18 19 19 20 20 20 21 21 22 22 22 22 21 21 20
10 10 9 10 9 9 9 9 9 9 10 10 11 11 12 14 15 14 15 16 17 17 17 19 19 19 19 18 19 19 19 20 21 21 21 20 19 19 18 17 16 16 17 17 18 18 19 19 19 19 18 17 16 15 14 13 12 11 11 12 12 12 12 13 16 16 16 17 18 18 19 20 20 21 21 21 21 21 21 21 21 20 20 19 19
10 9 9 9 9 9 10 9 9 9 10 11 11 12 14 15 16 16 17 18 20 20 19 19 20 20 21 22 21 20 20 21 21 21 21 20 18 18 17 17 17 18 18 18 19 19 19 19 18 18 17 17 16 16 15 14 14 14 14 14 13 14 14 15 17 17 17 18 19 20 20 21 21 21 21 21 21 21 20 19 19 18 18 18 17
10 9 9 9 10 10 11 11 10 9 10 12 12 13 15 16 17 18 19 21 22 22 21 20 21 21 22 23 23 22 21 20 19 19 19 19 18 18 18 18 18 19 19 19 20 20 19 18 17 16 16 16 17 17 16 16 16 16 16 16 15 15 16 18 19 19 19 20 20 21 21 21 21 21 21 21 20 19 18 17 17 16 16 16 16
10 10 9 10 10 11 11 11 11 10 11 13 14 15 16 17 19 20 22 23 23 23 22 22 21 21 22 22 23 23 23 21 19 19 19 19 19 19 19 19 20 20 19 20 20 19 19 17 16 16 16 17 17 17 17 16 17 17 17 18 17 17 20 21 21 21 20 21 21 21 21 21 21 21 20 20 19 18 17 16 15 15 15 15 15
10 10 10 10 11 13 13 12 12 13 14 15 15 17 18 19 20 23 24 25 24 23 23 22 21 21 21 21 22 22 22 22 21 20 20 21 21 20 20 20 20 20 19 19 19 19 18 18 17 17 17 18 18 18 18 18 18 18 19 19 18 19 22 23 22 21 21 21 21 21 21 21 21 20 19 18 17 16 15 14 14 14 15 15 15
11 10 10 11 12 13 14 14 14 16 17 18 18 18 20 20 22 24 25 25 24 24 23 23 22 22 21 21 22 22 22 22 21 21 21 21 21 21 20 20 20 19 18 18 18 18 18 18 18 18 18 18 18 18 18 18 18 19 20 19 18 21 24 23 22 21 21 21 21 21 21 20 19 18 17 16 15 14 13 13 13 14 15 15 16
12 10 10 12 13 13 14 15 16 17 18 19 19 19 21 22 22 23 24 24 24 24 24 24 24 23 21 21 21 21 22 22 22 22 21 21 21 21 20 19 19 18 18 17 17 16 17 17 17 18 19 18 18 18 18 19 19 19 19 18 20 23 24 23 22 21 21 21 21 20 19 19 18 17 16 15 14 13 13 13 14 15 15 16 17
12 12 12 13 14 14 15 16 17 17 18 19 19 19 20 21 22 23 23 23 24 24 24 24 24 23 22 21 22 22 22 23 23 23 22 21 21 21 20 19 19 18 17 16 16 15 16 16 16 17 17 17 18 18 18 19 20 19 18 19 22 24 24 23 21 21 20 20 19 18 18 17 16 15 14 14 13 13 13 14 15 16 17 18 19
13 14 15 15 15 15 16 16 17 18 18 18 19 19 20 20 21 22 23 23 23 23 23 23 23 23 23 22 22 23 23 24 24 23 23 22 21 20 19 19 19 18 17 15 15 15 15 15 16 17 17 16 17 18 19 20 20 20 19 21 23 24 22 21 20 19 19 19 18 17 16 15 15 14 14 13 13 14 14 15 16 18 19 21 22
14 15 15 16 16 16 17 17 17 18 19 19 19 20 20 21 21 21 21 22 22 22 22 22 23 23 23 23 23 23 23 23 23 23 22 21 20 20 19 18 18 17 17 15 14 16 16 15 16 18 18 18 18 20 21 21 21 20 20 21 23 23 21 20 19 18 18 17 16 15 15 14 14 14 13 14 14 14 15 17 18 20 21 22 24
16 15 15 16 18 18 17 17 17 18 19 19 20 21 21 21 22 21 21 21 21 22 22 22 22 23 23 23 22 22 22 21 21 20 20 19 19 19 18 17 17 17 16 15 15 16 16 16 17 18 19 21 21 21 22 22 22 20 19 20 21 21 20 19 17 17 16 15 15 14 14 14 14 14 14 14 15 16 17 19 20 21 23 24 24
16 15 16 17 19 18 17 17 17 18 19 20 20 21 21 21 21 20 20 19 20 20 21 22 21 21 21 21 21 20 20 19 19 19 18 17 17 17 16 16 16 16 16 16 16 16 16 17 17 18 20 22 23 22 22 22 20 19 18 18 19 19 18 17 16 16 15 14 14 14 14 14 14 14 15 16 17 18 19 20 22 23 24 24 24
16 16 18 19 19 18 17 16 17 18 19 19 20 20 20 20 20 19 19 18 18 20 20 20 20 21 20 19 19 18 18 18 18 18 17 16 15 16 16 15 15 16 16 16 16 16 18 19 17 17 20 23 24 23 22 21 18 18 18 18 19 18 16 16 16 16 14 13 13 13 14 14 14 15 16 17 18 20 20 21 22 23 24 23 23
16 17 19 19 18 18 18 17 16 17 18 18 19 19 18 19 18 18 18 18 18 19 18 18 19 20 19 18 17 16 16 15 16 16 16 15 15 15 15 14 14 14 15 15 16 16 18 19 17 18 21 22 24 24 22 19 17 17 17 18 18 16 14 15 16 16 14 13 13 13 14 14 14 16 17 19 20 21 21 22 23 23 23 22 22
15 16 19 18 17 18 17 17 16 16 17 17 18 18 17 17 17 17 17 17 17 18 17 16 16 16 17 16 15 15 14 14 14 15 15 15 15 14 14 13 13 14 15 15 15 15 17 19 19 19 20 22 23 23 20 16 15 16 16 16 15 14 14 15 15 16 15 13 13 13 14 15 15 16 18 19 20 21 22 22 22 22 21 21 21
16 16 17 18 16 16 16 16 16 15 15 16 17 17 17 17 17 16 16 16 16 16 15 15 13 13 13 14 15 15 14 14 14 14 15 14 14 14 13 13 14 15 16 15 15 16 17 18 19 18 19 22 22 21 19 15 15 15 14 13 12 13 15 16 16 16 14 13 13 13 14 16 16 17 18 20 21 21 21 21 21 20 20 20 19
17 16 16 16 16 15 16 16 16 16 16 15 16 16 16 16 16 15 14 14 14 14 14 14 13 12 11 12 14 14 14 13 13 14 14 14 13 13 13 14 14 14 15 15 15 16 17 18 18 18 20 21 21 20 18 15 15 15 13 11 11 13 14 16 15 13 11 12 13 14 15 16 17 18 19 20 20 20 20 19 19 19 19 18 18
17 17 17 16 16 15 15 16 16 17 17 16 15 16 16 15 15 14 14 14 14 14 14 13 13 12 12 12 12 13 14 13 13 13 14 14 13 13 13 14 14 14 14 14 15 15 17 18 17 16 17 18 20 19 16 15 15 14 12 10 10 13 14 14 13 11 12 13 14 15 16 16 18 18 20 20 20 19 18 18 17 17 17 17 17
15 16 17 16 16 16 15 15 16 16 17 17 16 16 16 15 15 14 14 15 15 15 14 13 13 13 13 12 11 12 13 12 12 12 13 13 13 13 13 13 13 14 14 15 15 15 17 17 15 15 16 17 17 17 16 15 15 13 11 10 10 13 14 13 13 12 13 14 14 16 17 17 18 19 19 20 19 18 17 17 16 16 16 16 16
13 14 15 15 15 16 15 15 15 15 15 16 16 16 16 15 14 14 14 15 15 15 14 13 13 13 13 12 12 12 12 12 12 11 11 13 13 12 12 13 13 14 15 15 15 16 16 15 15 15 16 17 18 18 17 16 14 11 10 10 10 11 12 12 14 13 13 13 14 16 17 16 18 19 19 19 18 17 16 15 15 15 15 15 15
13 13 14 14 14 15 15 15 15 15 14 15 15 15 15 14 14 14 14 15 14 14 13 13 13 13 13 12 12 11 11 11 11 10 10 11 12 12 11 12 13 13 14 15 15 15 15 14 14 15 16 18 18 19 17 15 14 11 10 11 9 10 11 12 14 14 13 11 11 15 17 15 17 19 18 17 17 16 15 14 13 14 13 13 14
14 13 13 14 14 14 15 15 15 15 15 15 15 15 15 14 14 14 14 14 14 13 12 12 12 12 12 12 11 10 10 11 11 11 10 10 11 11 11 11 12 12 13 13 13 14 15 14 14 15 15 15 16 18 16 13 13 13 13 12 10 11 12 13 13 13 12 11 11 13 15 13 13 15 15 14 14 14 14 12 11 11 11 11 12
14 14 14 13 13 14 14 15 15 16 16 15 15 15 15 15 14 14 14 14 13 13 12 11 11 12 11 11 10 9 9 10 10 11 11 9 10 11 10 11 11 11 12 12 11 12 14 15 15 15 14 13 15 15 14 13 12 12 13 12 10 11 11 11 11 10 11 12 12 11 13 13 10 11 13 11 12 12 11 11 9 9 9 9 10
14 14 14 14 13 14 14 15 15 16 16 16 16 16 15 15 14 14 13 12 13 12 12 11 11 11 11 10 9 9 8 8 9 10 11 9 10 11 10 11 11 11 12 11 11 12 14 14 14 14 12 11 13 12 12 13 12 10 11 11 10 10 10 9 9 8 10 13 12 10 11 12 10 9 11 10 11 11 9 9 8 7 7 8 9
14 14 14 14 14 14 14 14 15 15 16 16 16 16 15 14 14 13 12 11 12 12 12 11 10 11 10 10 9 9 8 8 8 9 10 9 9 9 9 10 11 11 11 11 11 12 13 13 12 12 11 10 11 11 12 11 11 10 10 10 9 9 9 8 8 8 9 11 12 11 10 10 9 9 11 10 9 9 8 8 7 7 7 8 9
14 14 14 14 14 14 14 14 14 14 15 15 15 14 14 13 12 13 12 11 11 12 12 11 10 10 10 10 9 9 9 9 9 8 9 9 8 8 8 10 11 10 10 11 11 11 12 13 12 11 11 10 9 11 13 11 10 9 8 8 8 7 6 6 6 6 8 10 11 11 8 7 8 9 10 8 6 7 9 8 8 8 8 8 9
14 14 14 14 13 14 14 13 13 13 14 13 13 13 13 12 11 12 13 11 11 11 11 11 10 10 10 10 9 9 9 9 8 8 8 8 8 8 8 9 11 11 10 10 11 11 11 11 11 11 10 10 9 11 13 9 7 7 6 6 6 5 4 3 3 2 4 8 10 9 5 5 8 7 6 5 5 7 8 8 8 8 8 8 10
15 15 14 14 13 14 14 13 13 13 12 12 12 12 11 11 11 13 12 11 12 12 12 12 11 10 10 9 9 9 9 8 8 8 7 7 8 8 9 8 9 10 10 10 10 11 11 10 10 11 10 9 8 10 11 9 6 6 5 4 5 5 5 4 3 2 2 5 7 6 4 5 6 4 4 5 5 6 7 7 7 8 7 8 10
15 14 14 13 13 14 13 13 13 12 12 12 12 12 11 10 10 12 12 12 12 12 13 13 11 11 10 10 9 9 8 8 8 7 7 7 7 7 8 8 8 8 9 9 9 9 10 10 10 10 10 8 7 8 9 7 7 7 5 5 5 5 5 4 3 2 2 2 3 3 3 3 3 2 4 5 4 5 7 6 6 6 7 8 9
15 14 14 14 14 14 14 13 12 12 12 13 13 12 12 10 10 11 11 12 12 12 13 13 12 11 10 10 10 9 8 8 8 7 6 6 6 6 6 7 7 7 7 7 8 7 8 9 9 10 10 8 8 8 7 6 7 8 7 6 6 6 4 3 3 3 2 1 2 2 1 2 1 2 1 2 2 3 5 6 6 6 6 7 9
15 15 14 14 14 14 14 13 12 12 12 13 13 13 13 12 12 12 12 13 13 12 12 12 12 11 10 10 10 9 8 8 7 6 6 5 5 5 5 5 5 6 6 6 7 6 7 8 8 9 10 10 9 8 7 7 9 9 7 6 7 7 5 4 4 3 2 2 2 1 1 1 0 3 2 0 0 2 3 5 6 6 7 8 10
16 16 15 15 15 14 14 13 11 11 11 12 13 13 13 12 12 13 13 13 13 13 12 11 10 10 9 9 9 9 7 7 7 6 6 5 5 5 4 4 4 4 5 6 6 6 6 7 7 8 9 10 10 10 8 8 8 7 7 6 5 6 6 7 6 5 4 2 1 1 1 2 3 3 3 2 3 4 5 6 7 7 8 10 10
16 17 16 15 15 14 14 14 12 11 11 12 12 12 12 11 12 12 12 12 11 11 11 10 9 8 8 8 7 8 7 6 6 6 5 5 5 4 4 4 3 3 4 5 6 6 6 6 6 7 8 9 9 10 9 7 6 6 6 7 7 7 7 7 6 5 4 3 2 1 2 4 4 4 5 5 5 6 7 7 9 9 9 9 10
16 17 16 16 15 15 14 14 13 12 11 11 11 12 12 11 11 10 10 10 9 9 9 9 9 8 8 8 7 7 5 5 4 4 4 4 4 4 4 3 3 3 3 4 4 4 5 5 5 5 6 6 7 8 9 7 7 8 8 8 8 7 7 5 4 4 3 3 3 4 4 3 4 5 6 6 6 7 8 9 11 11 10 10 9
17 17 17 17 16 15 14 14 14 13 12 11 11 11 11 11 10 9 9 8 7 8 9 8 8 8 7 7 7 6 4 4 3 3 3 3 4 4 4 4 4 4 3 3 3 2 4 5 5 5 4 5 5 6 7 8 8 9 9 9 9 8 7 5 4 5 4 5 7 7 6 4 5 6 6 6 7 9 9 10 12 11 11 11 10
Wind_Direction
128 123 124 120 121 123 119 117 115 115 118 121 122 121 118 115 115 114 111 107 109 113 114 118 119 118 120 122 123 121 119 119 112 105 102 99 96 95 93 92 94 95 96 101 105 113 120 121 119 116 112 108 106 104 100 97 93 92 92 93 95 95 93 93 92 92 94 94 92 92 92 92 92 93 92 92 93 95 97 99 99 100 102 103 103
126 124 124 120 120 118 115 114 114 119 123 124 121 118 117 117 118 116 115 113 115 118 120 121 119 116 116 120 124 127 126 120 113 107 103 101 99 99 96 94 98 98 99 103 107 114 119 119 118 116 114 110 107 105 103 99 96 94 94 95 94 92 91 91 90 90 91 91 91 90 92 94 93 93 93 94 94 93 95 98 99 98 97 97 98
127 124 123 118 115 111 111 114 117 124 124 121 117 118 123 125 125 124 125 125 125 126 127 125 121 118 118 122 125 128 125 118 111 106 104 103 101 101 98 96 100 102 101 104 108 113 116 116 116 118 116 113 111 109 106 104 102 100 100 98 96 94 93 93 91 90 91 92 93 93 94 94 94 94 94 93 93 94 95 94 92 89 89 93 97
130 126 123 117 115 114 116 120 125 127 124 122 122 129 133 133 135 137 141 140 138 138 139 135 127 124 126 124 122 121 117 115 110 108 107 104 104 103 100 100 104 107 105 107 111 114 116 118 119 119 116 114 113 113 112 109 105 102 100 98 98 97 95 95 94 91 91 92 94 95 95 92 93 94 92 89 89 90 90 85 79 77 76 85 92
131 129 125 124 123 123 126 130 134 135 135 136 138 142 142 140 142 144 146 146 146 145 143 139 131 127 130 124 120 120 116 114 111 113 115 109 105 104 104 105 109 111 111 113 115 117 119 122 123 120 117 115 116 119 120 116 108 102 99 98 98 97 95 94 92 92 91 91 91 92 93 91 90 90 89 87 86 84 82 78 71 68 67 74 83
130 130 127 128 127 128 132 137 140 141 142 143 147 143 140 139 136 135 130 137 147 147 143 140 136 129 127 123 117 114 113 114 112 114 117 110 103 103 106 108 111 113 115 117 119 121 122 124 124 121 120 118 118 120 122 119 109 102 99 99 98 95 95 94 93 94 94 92 89 90 90 88 84 80 80 78 78 77 76 72 63 63 67 72 78
132 131 128 128 128 131 134 136 136 135 140 136 133 128 129 130 127 127 120 125 136 147 146 138 134 129 125 121 117 112 110 111 112 116 115 108 102 103 107 109 112 113 115 117 120 124 124 125 123 122 123 121 119 118 118 116 108 100 98 96 93 91 91 93 94 94 94 93 89 87 85 83 78 72 71 69 68 68 66 63 58 63 71 74 77
133 132 129 129 129 132 129 129 129 128 131 121 116 115 120 120 118 117 116 121 123 132 139 134 129 128 126 119 116 114 113 113 115 118 115 109 105 107 110 112 113 113 115 116 118 121 123 124 124 123 126 125 122 118 116 113 108 102 97 93 88 87 87 91 92 90 90 89 86 82 78 76 76 72 67 66 66 63 58 60 65 70 75 76 78
134 134 130 128 128 127 122 122 127 124 117 111 110 110 115 117 117 113 112 117 115 118 123 126 123 119 120 114 110 113 116 117 118 117 114 115 114 112 115 117 114 113 114 115 115 116 118 120 123 124 125 124 121 118 115 114 110 105 100 93 83 81 82 86 87 87 85 82 81 77 73 73 74 72 66 63 65 64 64 68 73 76 78 79 80
132 131 128 127 128 124 119 120 119 114 105 104 106 107 111 115 117 110 109 112 111 114 113 115 114 108 110 112 111 114 116 117 118 115 114 119 122 118 119 119 115 113 112 112 113 113 115 117 120 121 121 119 116 114 115 116 110 105 100 90 81 80 81 80 81 82 80 79 78 74 70 69 69 70 67 67 68 70 73 77 80 82 82 83 83
128 128 127 129 132 126 119 117 110 101 98 100 104 107 111 116 117 114 114 117 118 117 110 109 109 107 109 113 114 115 115 115 114 114 117 120 123 121 120 119 115 113 110 110 111 112 112 114 116 115 115 114 112 111 111 112 109 106 98 87 84 84 85 83 79 76 74 76 76 74 71 68 69 72 73 73 75 77 81 84 85 85 86 85 85
126 128 130 134 134 125 119 114 107 103 107 108 108 111 113 117 117 117 118 120 118 110 106 104 104 110 115 114 115 117 114 114 113 113 119 120 122 122 120 117 115 112 109 109 110 109 110 110 109 108 109 108 107 106 106 107 106 107 97 88 85 83 86 82 74 69 69 73 73 75 74 73 74 76 77 78 81 84 86 87 86 86 86 85 84
127 130 131 134 126 119 117 113 112 113 115 115 114 114 112 110 107 109 109 107 103 100 106 107 107 112 115 114 115 115 111 112 114 114 118 120 122 122 118 115 113 110 109 109 108 107 107 106 104 103 102 102 102 102 102 102 104 105 96 86 79 74 76 70 67 68 71 73 74 77 78 80 81 82 82 84 86 88 88 87 85 85 83 83 81
126 127 126 121 115 112 116 116 115 116 114 111 111 109 103 98 99 101 100 100 100 102 107 109 112 114 112 113 112 109 108 111 114 114 116 119 122 121 117 114 111 109 108 107 106 105 105 104 103 102 100 100 99 99 99 99 100 100 93 86 80 71 67 63 64 69 73 75 78 82 84 87 88 88 89 89 90 89 87 85 83 82 81 80 78
121 121 119 116 114 110 113 115 115 112 106 100 99 97 94 96 100 101 100 102 106 108 110 110 112 113 113 113 110 107 106 110 111 113 116 118 119 118 115 114 111 108 107 104 103 103 104 105 104 101 99 97 96 96 96 96 94 92 90 87 82 74 66 64 69 71 73 78 82 86 88 90 91 92 92 91 90 88 85 83 82 80 79 77 75
115 117 117 118 115 107 104 107 110 105 97 93 92 90 91 96 101 104 104 108 110 111 112 111 111 111 112 110 109 107 105 108 108 112 116 116 116 116 115 114 111 109 107 103 102 102 103 103 102 99 95 93 92 93 94 93 90 88 87 84 81 78 70 68 74 74 77 83 87 89 91 93 94 94 92 90 87 85 83 81 80 78 76 74 73
115 116 116 116 113 109 105 105 106 101 95 92 91 93 95 97 103 106 107 111 112 112 112 112 111 110 111 107 105 105 108 109 108 112 115 113 114 116 116 115 112 109 106 103 102 102 100 99 97 95 91 89 90 93 93 91 88 87 86 83 81 81 78 77 80 79 81 87 90 92 94 95 95 92 89 87 85 83 81 79 77 76 74 72 71
115 113 115 112 111 113 111 108 105 102 99 95 96 100 101 101 106 108 110 111 110 111 111 110 110 110 110 107 105 105 108 109 108 112 115 115 116 118 118 116 113 108 104 103 102 99 97 95 93 91 90 90 91 92 92 90 88 86 85 83 80 83 83 83 85 85 88 90 93 95 95 95 92 89 87 85 83 81 79 78 76 74 72 71 69
116 114 115 111 112 114 111 109 105 106 104 101 105 107 106 106 109 110 110 110 111 111 110 110 111 109 107 105 106 106 107 109 109 112 115 118 119 120 121 118 112 105 102 102 100 98 95 93 90 90 92 94 94 92 91 90 87 84 82 79 78 84 89 90 90 91 92 94 95 95 94 92 89 87 85 83 80 78 78 76 74 72 70 68 65
122 120 115 111 116 117 114 113 109 109 107 106 110 113 111 111 111 109 108 109 110 110 109 110 110 107 105 105 108 110 112 115 116 116 117 120 122 122 120 115 107 101 101 100 99 97 95 91 89 89 92 95 94 92 90 87 85 83 81 79 80 88 95 95 93 92 93 95 94 93 90 88 86 84 82 80 78 77 76 73 70 69 67 64 62
125 124 117 112 116 118 118 115 110 107 106 109 114 116 114 113 113 110 108 109 110 110 109 109 106 104 104 105 107 109 114 117 119 118 118 118 119 118 114 109 103 100 99 99 99 98 94 90 88 90 92 93 93 92 90 86 85 84 83 81 84 92 95 93 92 93 94 94 91 89 87 85 83 82 79 78 76 74 71 69 67 65 63 61 60
125 126 122 118 119 118 117 112 107 105 105 108 113 116 115 114 114 111 110 110 111 112 110 108 106 105 105 104 103 105 109 111 113 112 111 110 110 110 108 105 102 101 101 101 101 99 96 91 89 92 94 92 92 92 91 88 85 84 83 82 88 94 94 93 93 94 93 90 87 85 84 82 81 78 76 75 72 70 67 65 64 62 62 62 63
123 121 122 123 123 118 115 113 108 106 106 108 111 114 114 114 113 111 111 111 111 111 111 110 108 107 106 104 101 101 103 105 106 105 105 105 106 107 105 104 103 103 104 104 104 101 97 94 93 95 94 92 91 92 92 92 89 84 84 88 96 97 96 96 94 92 90 86 85 82 81 79 77 75 74 72 70 67 64 63 62 63 65 67 70
119 116 118 120 119 115 113 114 112 109 110 110 112 114 114 113 112 112 112 110 108 108 109 110 108 106 104 102 99 98 101 103 103 104 104 105 105 106 107 107 106 104 103 103 103 100 96 94 94 93 90 88 89 92 93 92 90 87 91 98 100 98 95 94 92 89 87 84 82 80 78 77 75 74 72 70 68 66 65 65 67 69 71 75 78
117 113 115 117 116 115 113 112 111 111 113 114 114 114 113 112 112 112 112 110 108 107 108 108 107 105 103 102 99 99 102 102 102 104 104 105 106 107 108 108 108 106 104 102 102 100 96 95 95 93 89 87 89 94 94 92 92 94 100 104 101 97 94 92 91 89 86 83 81 79 78 77 76 74 72 71 70 70 71 73 74 76 79 81 82
115 113 115 118 118 119 117 112 109 110 113 116 116 114 114 114 113 111 110 110 108 107 107 109 107 106 104 101 100 102 102 103 104 106 107 108 108 107 108 109 109 108 106 106 105 101 97 95 95 95 95 96 98 99 97 98 99 100 103 102 99 96 95 92 90 88 85 83 81 81 80 78 77 75 74 74 74 76 78 79 81 83 84 83 81
116 118 121 122 123 121 117 114 110 109 111 115 117 116 116 115 112 111 110 109 106 106 107 108 107 106 105 104 103 103 103 105 107 108 109 108 108 108 109 111 111 110 110 109 105 102 99 97 98 101 103 102 101 99 100 102 102 102 101 99 97 96 93 90 87 85 83 82 82 82 81 80 80 79 79 79 80 82 84 86 87 87 85 83 81
121 123 125 125 124 121 119 119 115 112 113 116 118 117 117 115 113 112 110 110 107 107 108 109 109 106 105 105 106 106 107 109 109 108 107 106 107 108 108 110 112 111 110 110 106 105 103 99 100 107 109 106 104 101 101 101 101 103 102 100 97 93 91 89 87 84 81 81 83 83 83 83 83 83 83 84 86 87 89 89 89 87 85 83 81
124 125 126 126 124 122 122 122 119 117 117 119 119 119 120 118 115 114 112 111 108 107 109 111 111 108 107 107 107 108 109 109 109 108 107 107 107 105 104 106 107 106 106 108 107 104 100 97 99 107 109 109 108 106 104 103 103 105 104 101 96 91 91 92 88 83 80 81 83 84 84 84 85 87 90 92 93 93 92 90 88 86 84 82 80
127 127 127 127 123 123 124 124 122 120 120 121 121 121 123 121 118 117 115 114 110 109 110 111 111 111 112 110 110 109 108 108 108 107 106 103 99 96 98 101 101 103 106 107 105 102 102 103 105 108 110 112 111 108 105 103 105 107 104 99 94 93 94 92 89 84 80 78 81 85 86 86 89 93 96 98 97 95 93 90 88 86 84 82 78
132 131 130 129 126 124 124 124 123 121 123 124 124 125 125 123 122 120 118 118 115 114 113 112 111 112 115 115 113 111 108 107 104 100 99 96 94 95 99 104 104 105 108 108 107 108 111 112 112 114 117 117 114 110 105 101 104 105 101 98 97 102 101 95 92 86 81 79 82 87 91 92 94 97 99 99 97 95 93 91 90 88 85 82 79
138 138 135 132 129 128 127 127 126 126 128 127 126 128 128 127 126 124 120 118 116 118 118 115 111 109 113 115 113 111 109 107 104 101 99 99 101 103 103 102 102 103 107 110 113 116 115 113 115 119 122 120 115 110 108 107 104 99 97 98 100 105 107 102 92 83 82 86 88 90 94 97 97 98 99 98 96 95 94 93 92 90 87 83 81
142 142 140 135 132 130 130 132 133 134 132 129 128 128 129 130 129 126 121 118 117 119 118 116 115 115 116 115 114 113 112 111 108 105 102 101 101 101 98 97 101 105 108 112 116 118 117 116 118 123 125 122 117 112 109 109 104 98 95 95 97 98 101 96 86 82 84 85 88 90 93 98 100 100 99 98 96 96 94 93 91 89 85 82 79
145 144 144 141 137 135 135 137 138 138 134 132 132 130 130 130 128 126 124 122 121 121 120 120 120 122 122 119 118 114 112 110 105 102 100 98 96 96 96 98 106 112 114 117 118 121 121 121 122 125 126 120 116 112 105 103 101 95 90 90 99 100 97 93 90 97 96 88 88 91 94 98 100 101 100 98 94 92 91 90 88 86 83 79 75
147 145 146 143 139 137 139 140 139 138 136 136 136 134 133 131 130 130 128 125 124 124 124 125 124 124 123 122 121 113 110 107 100 99 99 99 99 99 101 104 110 115 118 120 120 122 122 120 122 124 124 118 113 108 101 102 101 95 94 95 97 96 95 94 94 97 98 95 95 94 95 99 101 100 98 96 92 89 87 85 83 81 79 74 69
150 149 148 144 141 141 141 142 141 141 139 139 138 136 135 135 136 136 132 129 127 127 128 129 127 125 125 125 123 116 112 109 104 101 100 103 104 104 107 111 113 115 119 123 125 125 122 122 125 128 129 126 121 115 111 110 106 100 99 93 84 84 88 92 93 90 88 92 98 98 96 99 101 97 93 93 91 88 85 82 80 77 74 71 65
153 154 150 147 147 146 146 145 145 145 142 141 141 139 139 140 140 138 135 132 131 131 131 130 129 127 128 127 124 120 116 112 109 105 103 106 108 108 112 114 113 116 121 127 131 128 124 125 130 135 138 135 129 121 116 115 114 109 99 88 82 92 99 97 94 90 85 86 97 104 101 99 98 93 88 87 87 86 83 79 79 76 71 70 65
158 157 154 154 153 152 151 150 150 148 146 146 146 145 145 145 142 141 140 137 135 132 131 130 130 131 131 129 126 123 118 114 113 110 110 112 111 111 113 112 112 116 120 126 132 130 128 129 133 138 138 135 130 121 116 118 118 110 100 93 92 100 101 96 92 92 95 94 95 102 103 100 98 93 88 84 82 81 80 76 74 74 69 63 61
162 159 158 159 157 156 154 154 154 153 153 152 152 151 152 151 146 146 146 142 138 134 133 133 133 133 131 130 128 124 119 119 120 116 117 119 115 115 115 115 117 120 122 128 136 137 134 133 137 140 137 135 133 123 122 125 117 106 104 105 106 106 103 102 102 105 109 103 94 96 99 97 95 92 89 87 81 72 70 69 65 69 65 56 52
163 160 161 158 155 156 154 153 154 156 159 156 156 156 157 157 152 149 148 145 143 140 139 137 137 137 134 133 129 125 123 121 123 120 119 120 117 118 120 121 123 123 124 131 140 143 140 138 142 144 142 145 141 126 121 123 114 107 112 117 118 117 121 127 123 123 121 109 101 99 96 89 83 84 83 76 72 66 61 58 59 66 62 49 44
164 162 160 156 154 155 153 153 155 157 160 159 158 160 161 161 155 147 148 151 149 147 143 141 142 143 140 139 135 133 132 127 128 126 123 124 121 121 124 123 123 123 126 134 141 145 142 141 145 146 146 151 146 133 129 128 119 113 116 119 117 119 133 139 126 129 134 119 107 99 89 79 76 79 73 59 57 62 59 55 53 58 59 47 41
166 166 162 159 158 157 157 156 157 156 156 157 156 160 162 162 155 148 152 154 151 151 149 146 148 148 146 143 141 142 141 137 137 136 132 133 128 124 124 124 125 128 129 134 139 145 144 144 147 147 150 153 151 144 140 137 127 118 115 114 114 120 136 140 124 130 141 132 111 91 85 89 80 69 61 53 53 55 51 53 48 44 52 49 39
173 174 166 167 165 162 163 161 161 158 153 151 151 159 161 161 158 152 155 153 151 156 154 152 151 151 151 146 146 149 147 143 142 141 136 135 130 125 126 124 126 129 130 133 138 144 146 146 147 148 155 161 162 152 138 132 129 123 121 117 119 132 142 149 155 159 144 135 115 89 94 109 84 68 55 48 54 55 51 55 52 41 44 43 30
179 179 172 174 172 169 169 165 167 162 155 151 151 158 158 158 157 152 153 151 154 159 157 158 156 155 154 150 152 153 152 149 147 145 138 137 133 128 129 125 126 130 133 137 140 144 146 148 151 149 157 167 169 157 138 133 140 135 141 126 114 131 134 131 156 178 131 122 116 99 108 101 83 101 100 65 53 58 59 57 55 46 41 35 22
183 183 177 177 176 176 174 170 172 166 159 156 158 161 161 161 159 154 153 153 157 160 159 162 159 158 158 153 156 157 156 155 152 151 145 144 136 129 133 130 131 134 134 140 140 141 148 154 156 151 155 167 173 168 154 148 148 144 152 141 124 132 134 124 124 133 123 117 118 108 122 123 102 134 119 90 72 62 56 44 45 45 34 25 12
185 185 183 182 182 181 179 177 178 172 163 164 168 168 167 169 166 162 162 162 163 162 163 164 158 159 159 156 159 160 161 159 155 156 151 149 141 133 138 135 137 140 133 140 143 142 151 156 159 158 159 167 175 179 180 180 172 163 163 162 154 146 143 146 137 146 178 149 126 129 171 168 61 348 57 137 138 69 51 32 30 27 11 2 354
185 186 187 185 186 186 182 182 183 178 171 173 176 173 173 176 175 176 176 170 168 167 167 165 161 161 160 161 163 161 164 162 157 159 155 154 151 145 149 147 150 149 138 141 148 149 153 154 163 172 171 173 180 184 194 205 197 184 177 177 171 159 161 177 182 192 195 146 134 169 250 236 292 310 310 178 261 351 4 4 11 1 345 341 339
187 188 190 187 188 190 185 186 187 183 180 180 179 177 179 181 177 180 180 174 172 170 168 165 166 168 163 164 166 161 162 165 162 161 158 157 161 161 163 165 169 167 152 146 150 156 161 161 166 174 177 179 183 186 196 209 204 196 192 186 182 182 185 188 200 211 198 189 193 168 290 263 241 273 304 306 305 327 332 334 337 334 338 337 328
192 192 192 187 189 193 189 188 189 188 188 185 183 182 183 182 177 177 180 181 177 170 168 165 166 170 169 166 166 164 162 167 168 162 163 164 168 175 176 177 179 180 171 156 159 166 167 168 169 171 173 173 182 191 199 209 205 204 210 203 193 194 204 210 218 225 215 219 229 198 245 269 274 296 314 310 309 324 326 325 328 332 338 329 321
197 197 194 189 191 195 193 190 188 190 194 192 189 187 186 184 182 181 183 186 178 171 174 171 166 169 175 170 167 169 164 168 173 168 173 176 179 191 190 188 191 193 190 173 173 175 166 168 174 176 169 168 183 194 198 208 210 210 222 227 221 210 215 230 244 257 276 283 269 246 241 260 281 294 309 315 315 317 319 323 325 330 334 325 327
200 201 196 191 194 196 195 193 190 190 194 196 194 192 190 185 185 188 185 182 181 181 182 179 174 171 173 171 169 172 168 170 181 182 194 195 197 208 198 196 206 205 208 197 187 193 185 183 183 181 178 181 191 194 196 206 213 221 230 237 241 237 235 247 260 266 280 289 282 278 278 273 263 274 295 304 302 300 309 316 317 326 334 334 345
Height
3191 3193 3194 3195 3196 3197 3199 3200 3200 3200 3200 3200 3200 3200 3201 3201 3201 3202 3202 3202 3202 3203 3203 3203 3203 3204 3205 3205 3206 3207 3207 3208 3208 3208 3207 3207 3207 3207 3207 3207 3207 3208 3208 3208 3209 3210 3210 3211 3211 3212 3212 3213 3213 3214 3214 3214 3214 3214 3215 3215 3215 3215 3215 3215 3215 3215 3215 3216 3216 3216 3216 3216 3216 3216 3216 3217 3217 3217 3217 3217 3217 3217 3217 3217 3217
3192 3193 3195 3195 3196 3198 3199 3200 3200 3199 3199 3200 3200 3201 3201 3201 3201 3202 3202 3202 3202 3203 3203 3203 3203 3204 3205 3205 3206 3207 3208 3208 3208 3208 3207 3207 3207 3208 3208 3208 3208 3208 3209 3209 3210 3210 3211 3212 3212 3213 3213 3214 3214 3215 3215 3215 3215 3215 3216 3216 3216 3216 3216 3216 3216 3216 3217 3217 3217 3217 3217 3217 3217 3217 3217 3218 3218 3218 3218 3218 3218 3218 3218 3218 3218
3193 3194 3195 3196 3197 3198 3199 3199 3199 3199 3199 3200 3201 3201 3201 3201 3201 3202 3202 3202 3202 3202 3203 3204 3204 3204 3204 3205 3206 3207 3208 3208 3208 3208 3208 3208 3208 3208 3208 3209 3209 3209 3210 3210 3211 3211 3212 3212 3213 3214 3214 3214 3215 3216 3216 3216 3216 3216 3216 3217 3217 3217 3217 3217 3217 3217 3218 3218 3218 3218 3218 3218 3218 3218 3218 3219 3219 3219 3219 3219 3219 3219 3219 3219 3219
3195 3195 3196 3197 3198 3199 3199 3199 3199 3199 3200 3201 3201 3201 3201 3201 3201 3202 3202 3202 3202 3203 3203 3204 3204 3204 3205 3205 3206 3207 3207 3207 3207 3208 3208 3209 3209 3209 3209 3209 3210 3210 3210 3211 3212 3212 3213 3213 3214 3215 3215 3215 3216 3216 3217 3217 3217 3217 3218 3218 3218 3218 3218 3219 3218 3218 3219 3219 3219 3219 3219 3219 3219 3219 3219 3220 3220 3220 3220 3220 3220 3220 3220 3219 3219
3196 3197 3198 3199 3199 3200 3200 3200 3200 3200 3201 3201 3201 3201 3201 3201 3201 3202 3202 3203 3203 3203 3203 3203 3204 3205 3205 3206 3206 3206 3207 3207 3208 3208 3209 3209 3209 3209 3210 3210 3210 3211 3211 3212 3212 3213 3214 3214 3215 3216 3216 3216 3216 3217 3218 3218 3218 3218 3219 3219 3219 3219 3220 3220 3220 3220 3220 3220 3220 3220 3220 3220 3220 3220 3220 3221 3221 3220 3221 3221 3220 3220 3220 3220 3219
3197 3198 3199 3200 3200 3200 3201 3201 3201 3201 3201 3201 3201 3202 3201 3201 3201 3202 3202 3203 3203 3203 3203 3204 3204 3205 3205 3206 3206 3207 3207 3207 3208 3209 3209 3210 3210 3210 3210 3211 3211 3212 3212 3213 3213 3214 3215 3215 3216 3217 3217 3217 3217 3218 3219 3219 3219 3219 3220 3220 3220 3220 3220 3221 3221 3221 3221 3221 3221 3221 3221 3221 3222 3221 3221 3221 3221 3221 3221 3221 3221 3221 3220 3220 3220
3198 3199 3200 3200 3201 3201 3201 3201 3201 3200 3200 3201 3201 3202 3202 3202 3202 3202 3202 3203 3203 3203 3203 3204 3204 3205 3205 3206 3206 3207 3207 3208 3209 3209 3210 3210 3210 3211 3211 3212 3212 3213 3213 3214 3214 3215 3216 3216 3217 3217 3218 3218 3219 3219 3220 3220 3220 3220 3221 3221 3221 3221 3221 3221 3222 3222 3222 3222 3222 3222 3222 3222 3222 3222 3222 3222 3222 3222 3222 3222 3221 3221 3221 3221 3221
3199 3200 3200 3200 3200 3200 3200 3200 3200 3200 3200 3200 3201 3201 3202 3202 3202 3202 3202 3203 3203 3203 3204 3204 3205 3205 3205 3206 3207 3207 3207 3208 3209 3210 3210 3210 3211 3211 3212 3213 3213 3214 3214 3215 3216 3216 3217 3217 3218 3218 3219 3219 3220 3220 3221 3221 3221 3221 3222 3222 3222 3222 3222 3222 3222 3223 3223 3223 3223 3224 3223 3223 3223 3223 3223 3223 3223 3223 3222 3222 3222 3222 3222 3222 3222
3200 3201 3201 3201 3200 3200 3199 3199 3199 3199 3200 3200 3201 3201 3201 3202 3202 3202 3202 3203 3203 3203 3204 3204 3205 3205 3205 3206 3207 3207 3207 3208 3209 3210 3210 3211 3211 3212 3212 3213 3214 3215 3215 3216 3217 3218 3218 3219 3219 3219 3220 3220 3221 3221 3222 3222 3222 3223 3223 3223 3223 3223 3223 3223 3223 3223 3224 3224 3224 3224 3224 3224 3224 3224 3224 3224 3223 3223 3223 3223 3223 3223 3223 3223 3223
3201 3201 3201 3200 3199 3199 3199 3199 3199 3199 3200 3200 3201 3201 3201 3202 3202 3202 3203 3203 3203 3204 3204 3205 3205 3205 3206 3206 3207 3208 3208 3209 3209 3210 3211 3211 3212 3213 3213 3214 3215 3216 3217 3217 3218 3219 3219 3220 3220 3220 3221 3221 3222 3223 3223 3223 3223 3224 3224 3224 3224 3224 3224 3224 3224 3224 3224 3224 3224 3224 3224 3224 3224 3224 3224 3224 3224 3224 3224 3224 3224 3224 3224 3224 3225
3201 3201 3200 3200 3199 3199 3198 3198 3199 3200 3200 3201 3201 3201 3202 3202 3203 3203 3203 3203 3204 3204 3205 3205 3206 3206 3207 3207 3208 3208 3209 3210 3210 3211 3211 3212 3213 3213 3214 3215 3216 3217 3218 3219 3220 3220 3220 3221 3221 3221 3222 3222 3223 3224 3224 3224 3225 3225 3225 3225 3225 3225 3225 3225 3225 3225 3225 3225 3225 3225 3225 3225 3225 3225 3225 3225 3225 3225 3225 3226 3226 3226 3226 3226 3227
3200 3200 3200 3199 3199 3199 3199 3199 3200 3201 3201 3201 3201 3202 3202 3203 3203 3204 3204 3204 3204 3204 3204 3205 3206 3207 3208 3208 3209 3209 3210 3210 3211 3211 3212 3213 3214 3214 3215 3216 3217 3219 3220 3221 3221 3221 3222 3222 3222 3223 3223 3223 3224 3224 3225 3225 3226 3226 3226 3225 3226 3226 3226 3226 3226 3226 3226 3226 3226 3226 3225 3225 3225 3226 3226 3226 3226 3227 3227 3227 3228 3228 3228 3228 3228
3200 3200 3200 3200 3199 3199 3199 3200 3201 3201 3201 3202 3202 3202 3203 3203 3203 3203 3203 3204 3203 3204 3205 3206 3206 3207 3208 3209 3209 3210 3210 3211 3212 3213 3213 3214 3215 3216 3216 3217 3219 3220 3221 3222 3222 3223 3223 3223 3224 3224 3224 3225 3225 3225 3226 3226 3226 3227 3226 3226 3226 3227 3227 3227 3227 3227 3227 3227 3226 3226 3226 3226 3227 3227 3227 3228 3228 3229 3229 3229 3229 3229 3229 3229 3230
3201 3201 3200 3200 3200 3200 3200 3200 3201 3201 3201 3202 3202 3203 3203 3203 3203 3203 3203 3203 3204 3205 3206 3207 3208 3208 3209 3210 3210 3211 3211 3212 3213 3213 3214 3215 3216 3217 3218 3219 3221 3222 3222 3223 3223 3224 3224 3225 3225 3225 3225 3226 3226 3226 3227 3227 3227 3227 3227 3227 3227 3228 3228 3228 3227 3227 3227 3227 3227 3227 3227 3227 3228 3228 3229 3229 3230 3230 3231 3231 3231 3231 3231 3231 3231
3201 3201 3201 3201 3201 3201 3201 3201 3201 3201 3202 3202 3203 3203 3202 3202 3202 3203 3203 3204 3205 3205 3207 3208 3209 3209 3210 3211 3211 3212 3212 3213 3214 3214 3215 3216 3217 3219 3220 3221 3222 3223 3224 3224 3224 3225 3225 3226 3226 3226 3226 3227 3227 3227 3227 3228 3228 3228 3228 3228 3228 3229 3229 3229 3228 3228 3228 3228 3228 3229 3229 3229 3229 3230 3231 3231 3232 3232 3232 3232 3232 3232 3232 3232 3232
3202 3202 3201 3201 3201 3201 3201 3201 3201 3201 3202 3202 3203 3203 3202 3202 3203 3204 3204 3205 3205 3206 3207 3209 3210 3210 3211 3212 3212 3213 3214 3214 3215 3216 3217 3218 3219 3220 3222 3223 3224 3224 3225 3225 3226 3226 3226 3227 3227 3227 3227 3228 3228 3228 3228 3228 3229 3229 3229 3229 3229 3230 3230 3230 3230 3229 3230 3230 3230 3230 3230 3231 3231 3232 3233 3233 3233 3233 3234 3233 3233 3233 3233 3233 3233
3201 3201 3201 3201 3201 3201 3201 3201 3201 3202 3202 3203 3203 3203 3203 3203 3204 3205 3205 3206 3206 3207 3208 3210 3211 3212 3212 3213 3214 3215 3215 3216 3217 3218 3219 3220 3221 3222 3223 3224 3225 3226 3226 3227 3227 3227 3227 3228 3228 3228 3228 3228 3229 3229 3229 3229 3230 3230 3230 3230 3231 3231 3232 3232 3231 3231 3231 3232 3232 3232 3232 3233 3233 3234 3234 3235 3235 3235 3235 3235 3235 3235 3234 3234 3234
3201 3201 3202 3202 3202 3202 3202 3203 3203 3203 3203 3204 3204 3204 3204 3205 3205 3206 3206 3207 3207 3208 3209 3211 3212 3214 3215 3215 3216 3216 3217 3217 3218 3220 3221 3222 3223 3224 3224 3226 3226 3227 3227 3228 3228 3228 3228 3229 3229 3229 3229 3229 3230 3230 3230 3231 3231 3231 3232 3232 3233 3233 3233 3233 3232 3233 3233 3233 3234 3234 3234 3235 3235 3235 3236 3236 3236 3236 3236 3236 3236 3236 3235 3235 3235
3202 3202 3202 3203 3203 3203 3204 3204 3204 3204 3205 3205 3205 3205 3205 3206 3206 3207 3207 3208 3209 3210 3211 3212 3213 3215 3216 3218 3218 3218 3218 3219 3220 3221 3222 3223 3224 3225 3226 3227 3228 3228 3228 3228 3229 3229 3229 3230 3230 3230 3230 3230 3231 3231 3231 3232 3232 3233 3233 3234 3234 3235 3235 3235 3234 3235 3235 3235 3236 3236 3236 3237 3237 3237 3237 3237 3238 3238 3238 3237 3237 3237 3236 3236 3235
3203 3203 3203 3203 3204 3204 3205 3205 3205 3205 3206 3206 3206 3206 3206 3207 3207 3208 3209 3209 3210 3211 3212 3213 3214 3215 3217 3219 3220 3220 3221 3221 3222 3223 3224 3225 3226 3227 3228 3228 3228 3229 3229 3229 3230 3230 3231 3231 3231 3231 3231 3232 3232 3232 3233 3233 3233 3234 3235 3235 3236 3236 3236 3236 3236 3237 3238 3238 3238 3238 3238 3238 3238 3238 3239 3239 3239 3239 3239 3239 3238 3238 3237 3237 3236
3203 3203 3204 3204 3205 3205 3206 3206 3206 3206 3207 3207 3207 3207 3208 3208 3209 3209 3210 3211 3212 3213 3214 3215 3216 3216 3218 3219 3220 3221 3222 3223 3224 3224 3225 3226 3227 3228 3228 3228 3229 3229 3230 3230 3231 3231 3232 3232 3232 3232 3233 3233 3234 3234 3234 3234 3235 3236 3236 3237 3238 3238 3238 3238 3239 3240 3240 3240 3240 3240 3240 3240 3240 3240 3240 3240 3240 3240 3240 3240 3239 3239 3238 3237 3237
3204 3204 3204 3205 3205 3205 3206 3207 3207 3207 3208 3208 3208 3209 3209 3210 3210 3211 3211 3213 3214 3215 3216 3216 3217 3218 3219 3220 3220 3221 3222 3223 3224 3225 3225 3226 3226 3227 3228 3229 3229 3230 3231 3231 3232 3232 3233 3233 3233 3234 3234 3235 3235 3235 3235 3236 3237 3238 3238 3239 3240 3240 3240 3240 3241 3242 3242 3242 3242 3242 3242 3242 3242 3241 3241 3242 3242 3241 3241 3241 3240 3239 3239 3238 3238
3205 3205 3205 3206 3206 3206 3207 3208 3208 3208 3209 3209 3210 3210 3211 3211 3212 3212 3213 3214 3215 3217 3217 3218 3219 3220 3221 3221 3222 3222 3223 3224 3224 3225 3226 3226 3227 3228 3229 3230 3231 3232 3232 3233 3233 3234 3234 3234 3235 3235 3236 3236 3237 3237 3237 3237 3238 3239 3240 3241 3242 3242 3242 3243 3243 3244 3244 3243 3243 3244 3243 3243 3243 3243 3243 3243 3243 3243 3242 3242 3241 3240 3240 3239 3239
3205 3206 3207 3207 3207 3208 3208 3209 3209 3210 3211 3211 3211 3212 3212 3213 3213 3214 3215 3216 3217 3218 3219 3220 3220 3221 3222 3223 3224 3224 3225 3225 3226 3226 3227 3228 3229 3230 3230 3231 3232 3233 3234 3234 3235 3235 3236 3236 3236 3237 3237 3238 3238 3239 3239 3239 3240 3241 3242 3243 3243 3243 3243 3244 3245 3245 3245 3245 3245 3245 3245 3245 3244 3244 3244 3244 3244 3244 3243 3243 3242 3242 3241 3241 3240
3206 3207 3207 3208 3208 3209 3210 3210 3210 3211 3212 3213 3213 3213 3214 3215 3215 3216 3216 3217 3218 3219 3220 3221 3222 3223 3224 3225 3225 3226 3227 3228 3228 3229 3230 3230 3231 3232 3232 3233 3234 3235 3235 3236 3237 3237 3237 3238 3238 3238 3238 3239 3240 3241 3241 3241 3242 3243 3244 3245 3245 3244 3245 3246 3246 3246 3246 3246 3246 3246 3246 3246 3246 3246 3246 3245 3245 3245 3244 3244 3243 3243 3243 3242 3242
3207 3208 3208 3209 3209 3210 3211 3211 3212 3212 3213 3214 3214 3215 3215 3216 3217 3218 3218 3219 3220 3220 3221 3222 3223 3224 3226 3226 3227 3228 3229 3230 3230 3231 3232 3232 3233 3233 3234 3235 3235 3236 3236 3237 3238 3238 3239 3239 3239 3239 3240 3241 3242 3242 3242 3243 3244 3245 3246 3247 3246 3246 3247 3247 3248 3248 3247 3247 3247 3247 3247 3247 3247 3247 3247 3246 3246 3246 3245 3245 3245 3244 3244 3244 3243
3208 3209 3209 3210 3210 3211 3212 3212 3213 3214 3214 3215 3215 3216 3217 3218 3219 3219 3220 3221 3221 3222 3223 3224 3225 3226 3227 3228 3229 3230 3231 3232 3232 3233 3234 3234 3235 3235 3235 3236 3236 3237 3237 3238 3239 3240 3240 3240 3241 3241 3241 3242 3243 3243 3244 3244 3245 3246 3248 3248 3248 3248 3248 3249 3249 3249 3248 3248 3248 3248 3248 3248 3248 3248 3248 3248 3247 3247 3247 3246 3246 3246 3245 3245 3245
3209 3210 3210 3211 3212 3212 3213 3214 3215 3215 3216 3217 3217 3218 3219 3219 3220 3221 3222 3222 3223 3223 3224 3225 3227 3227 3229 3230 3231 3232 3232 3233 3234 3234 3235 3235 3236 3236 3237 3237 3237 3238 3238 3239 3240 3241 3241 3242 3242 3242 3242 3243 3243 3244 3245 3246 3247 3248 3249 3249 3249 3249 3249 3250 3250 3250 3250 3250 3249 3249 3249 3249 3249 3249 3249 3249 3249 3248 3248 3248 3248 3247 3247 3247 3247
3210 3211 3212 3212 3213 3213 3214 3215 3216 3216 3217 3218 3219 3219 3220 3221 3222 3222 3223 3224 3224 3225 3226 3227 3228 3229 3230 3231 3232 3233 3234 3234 3235 3236 3236 3237 3237 3238 3238 3238 3239 3239 3239 3240 3241 3241 3242 3243 3244 3244 3244 3244 3244 3245 3247 3247 3249 3250 3250 3250 3250 3251 3251 3251 3251 3251 3251 3251 3251 3251 3250 3250 3250 3250 3250 3250 3250 3250 3250 3250 3250 3249 3249 3249 3248
3211 3212 3213 3213 3214 3214 3215 3216 3217 3218 3218 3219 3220 3221 3222 3222 3223 3224 3225 3225 3226 3226 3227 3229 3229 3230 3231 3232 3233 3234 3234 3235 3236 3237 3237 3238 3238 3238 3239 3239 3239 3240 3241 3242 3242 3242 3243 3244 3245 3245 3246 3246 3246 3247 3248 3249 3251 3251 3251 3251 3251 3252 3253 3252 3252 3252 3252 3252 3252 3252 3252 3251 3251 3251 3251 3251 3251 3251 3251 3251 3251 3251 3251 3251 3250
3211 3213 3214 3214 3215 3216 3216 3217 3218 3219 3220 3220 3221 3222 3223 3224 3225 3226 3226 3227 3227 3228 3229 3230 3231 3232 3233 3234 3234 3235 3235 3236 3237 3238 3238 3238 3239 3239 3239 3240 3241 3242 3242 3243 3243 3244 3245 3245 3246 3246 3247 3247 3247 3248 3249 3250 3252 3252 3252 3252 3253 3254 3254 3254 3253 3253 3253 3254 3253 3253 3253 3252 3253 3253 3252 3252 3252 3252 3253 3253 3253 3253 3252 3252 3252
3213 3213 3214 3215 3216 3217 3218 3218 3219 3220 3221 3222 3223 3223 3224 3225 3226 3227 3228 3228 3229 3230 3230 3231 3232 3233 3234 3235 3235 3236 3237 3237 3238 3239 3239 3239 3240 3241 3241 3241 3242 3243 3243 3244 3245 3245 3246 3247 3247 3248 3249 3249 3249 3249 3249 3251 3253 3253 3253 3254 3254 3255 3255 3255 3254 3254 3255 3255 3254 3254 3254 3254 3254 3254 3254 3254 3254 3254 3254 3254 3254 3254 3254 3253 3253
3214 3214 3215 3216 3217 3218 3219 3220 3221 3221 3222 3223 3224 3225 3225 3226 3227 3228 3229 3230 3230 3231 3232 3232 3233 3234 3235 3236 3236 3237 3238 3239 3239 3240 3240 3241 3241 3242 3242 3243 3243 3244 3244 3245 3246 3247 3247 3248 3249 3250 3250 3250 3250 3250 3251 3253 3254 3254 3255 3255 3255 3255 3255 3255 3255 3256 3256 3256 3256 3256 3255 3255 3255 3256 3256 3256 3256 3256 3256 3255 3255 3255 3255 3255 3254
3215 3215 3216 3217 3218 3219 3220 3221 3222 3223 3223 3224 3225 3226 3227 3227 3228 3229 3230 3231 3232 3232 3233 3234 3235 3236 3236 3237 3237 3238 3239 3240 3240 3241 3241 3241 3242 3242 3243 3244 3245 3245 3246 3246 3247 3248 3249 3250 3251 3251 3252 3252 3251 3251 3252 3254 3255 3256 3256 3256 3256 3256 3256 3256 3257 3258 3258 3258 3258 3257 3257 3257 3257 3257 3258 3258 3258 3258 3257 3257 3257 3257 3256 3256 3256
3215 3216 3217 3218 3219 3220 3221 3222 3223 3224 3224 3225 3226 3227 3228 3228 3229 3230 3231 3232 3233 3233 3234 3235 3236 3237 3237 3238 3239 3239 3240 3241 3241 3242 3242 3242 3243 3244 3244 3245 3246 3247 3247 3248 3248 3250 3251 3251 3252 3253 3253 3253 3253 3253 3254 3255 3256 3257 3257 3257 3257 3257 3257 3258 3258 3259 3259 3259 3259 3259 3259 3259 3259 3259 3259 3259 3259 3259 3259 3259 3259 3258 3258 3258 3257
3215 3216 3217 3218 3220 3221 3222 3223 3223 3224 3225 3226 3227 3228 3228 3229 3230 3231 3231 3232 3233 3234 3235 3236 3237 3238 3238 3239 3240 3240 3241 3242 3242 3243 3244 3244 3244 3245 3246 3246 3247 3248 3249 3249 3250 3251 3252 3252 3253 3253 3254 3254 3254 3253 3254 3256 3257 3257 3258 3258 3258 3258 3259 3259 3259 3259 3259 3260 3260 3260 3260 3261 3261 3261 3261 3260 3260 3261 3260 3260 3260 3260 3260 3259 3258
3215 3216 3217 3219 3220 3221 3223 3224 3224 3225 3226 3227 3227 3228 3229 3230 3231 3231 3232 3233 3234 3235 3236 3237 3238 3239 3240 3240 3241 3242 3243 3243 3244 3244 3245 3245 3246 3246 3247 3248 3248 3249 3249 3250 3251 3251 3252 3253 3253 3254 3254 3254 3254 3254 3255 3256 3257 3258 3259 3259 3259 3259 3260 3260 3260 3260 3261 3262 3262 3261 3261 3263 3262 3262 3262 3262 3262 3262 3261 3261 3261 3261 3260 3260 3259
3215 3217 3218 3219 3221 3222 3223 3224 3225 3226 3227 3227 3228 3229 3230 3230 3231 3232 3233 3234 3235 3236 3237 3238 3239 3240 3240 3241 3242 3243 3244 3245 3245 3245 3246 3247 3247 3248 3248 3249 3250 3250 3250 3251 3252 3252 3253 3254 3255 3255 3256 3256 3256 3255 3256 3257 3258 3259 3259 3259 3260 3260 3260 3261 3261 3261 3262 3263 3263 3263 3262 3263 3264 3263 3263 3263 3263 3262 3262 3262 3262 3261 3261 3261 3260
3216 3217 3219 3220 3221 3222 3224 3225 3226 3227 3227 3228 3229 3229 3230 3231 3232 3233 3234 3235 3235 3236 3237 3239 3240 3240 3241 3242 3243 3244 3245 3246 3246 3247 3247 3248 3249 3249 3250 3250 3251 3252 3252 3252 3253 3254 3254 3255 3256 3256 3257 3257 3257 3256 3257 3258 3259 3259 3259 3260 3260 3261 3261 3261 3261 3262 3263 3263 3264 3264 3264 3264 3264 3264 3264 3264 3263 3263 3263 3263 3263 3262 3262 3261 3260
3217 3218 3219 3220 3221 3223 3224 3225 3226 3227 3228 3229 3229 3230 3231 3232 3232 3233 3234 3235 3236 3237 3238 3239 3240 3241 3242 3243 3244 3245 3245 3246 3247 3247 3248 3249 3250 3250 3251 3252 3252 3253 3253 3253 3254 3255 3255 3255 3256 3257 3257 3257 3257 3257 3258 3258 3259 3259 3260 3260 3261 3261 3261 3262 3262 3263 3263 3263 3263 3265 3264 3264 3265 3265 3264 3265 3264 3264 3264 3264 3263 3263 3262 3261 3261
3218 3219 3220 3221 3222 3223 3224 3225 3226 3227 3229 3229 3230 3231 3232 3232 3233 3234 3235 3236 3237 3237 3239 3240 3241 3242 3243 3244 3245 3246 3246 3247 3247 3248 3249 3250 3250 3251 3252 3252 3253 3253 3254 3254 3255 3255 3256 3256 3257 3257 3258 3258 3258 3258 3258 3259 3260 3260 3261 3262 3262 3262 3262 3263 3263 3263 3263 3263 3263 3265 3264 3264 3265 3265 3265 3265 3265 3265 3265 3264 3264 3263 3262 3262 3262
3219 3220 3221 3222 3222 3224 3224 3225 3226 3227 3229 3230 3231 3232 3232 3233 3234 3235 3236 3236 3237 3238 3239 3240 3242 3243 3244 3245 3246 3247 3247 3248 3249 3249 3250 3251 3251 3252 3252 3253 3253 3254 3254 3255 3255 3256 3256 3257 3257 3258 3259 3259 3259 3259 3259 3260 3260 3261 3262 3263 3263 3263 3263 3264 3264 3264 3264 3263 3263 3264 3265 3265 3265 3265 3265 3266 3266 3265 3265 3265 3264 3264 3263 3263 3262
3220 3220 3221 3222 3223 3224 3225 3226 3227 3228 3229 3230 3231 3232 3233 3234 3235 3236 3237 3237 3238 3239 3239 3241 3242 3243 3244 3245 3246 3247 3248 3249 3249 3250 3251 3252 3252 3253 3253 3253 3254 3254 3255 3255 3256 3256 3257 3257 3258 3259 3260 3260 3260 3260 3260 3261 3262 3262 3263 3263 3264 3264 3264 3264 3264 3264 3264 3264 3264 3264 3265 3265 3265 3266 3266 3266 3266 3265 3265 3265 3265 3264 3263 3263 3263
3220 3221 3222 3223 3224 3225 3226 3226 3227 3228 3230 3231 3231 3232 3233 3234 3235 3236 3237 3238 3239 3239 3240 3241 3242 3243 3245 3245 3247 3248 3248 3249 3250 3251 3251 3252 3253 3253 3254 3254 3255 3255 3255 3256 3256 3257 3257 3258 3258 3259 3260 3260 3261 3261 3260 3261 3262 3263 3263 3264 3264 3264 3264 3265 3265 3265 3265 3265 3264 3264 3265 3266 3266 3266 3266 3266 3266 3266 3266 3266 3265 3264 3264 3263 3263
3220 3221 3222 3223 3224 3226 3226 3227 3228 3229 3230 3232 3232 3233 3234 3235 3236 3237 3237 3238 3239 3239 3240 3241 3242 3244 3245 3245 3247 3248 3248 3249 3250 3251 3252 3252 3253 3254 3254 3255 3255 3256 3256 3256 3256 3257 3258 3258 3259 3259 3260 3260 3261 3261 3261 3262 3262 3263 3263 3264 3265 3265 3265 3265 3265 3265 3265 3265 3265 3265 3266 3266 3266 3267 3266 3266 3266 3266 3266 3266 3265 3264 3263 3263 3262
3220 3221 3222 3224 3225 3226 3227 3228 3229 3230 3231 3232 3233 3234 3235 3236 3237 3237 3238 3239 3240 3240 3241 3242 3243 3244 3245 3246 3247 3248 3248 3249 3250 3251 3252 3252 3253 3254 3255 3255 3256 3256 3257 3257 3257 3258 3258 3258 3259 3260 3260 3260 3261 3262 3262 3262 3262 3262 3263 3264 3265 3265 3265 3265 3265 3265 3265 3265 3266 3265 3266 3266 3266 3267 3266 3266 3266 3266 3266 3266 3265 3264 3263 3263 3262
3219 3221 3222 3224 3225 3226 3227 3229 3229 3231 3232 3233 3233 3234 3235 3236 3237 3238 3239 3240 3240 3241 3242 3243 3244 3245 3245 3246 3247 3248 3248 3249 3250 3251 3252 3252 3253 3254 3255 3255 3256 3256 3257 3258 3258 3258 3259 3259 3259 3260 3260 3261 3261 3262 3262 3262 3262 3262 3263 3263 3264 3265 3265 3265 3265 3265 3265 3265 3265 3265 3265 3266 3266 3266 3266 3266 3266 3266 3266 3265 3265 3264 3264 3263 3262
3219 3220 3221 3223 3224 3226 3227 3229 3230 3231 3232 3233 3234 3235 3235 3237 3238 3239 3240 3241 3241 3242 3243 3244 3245 3245 3246 3247 3247 3248 3249 3249 3250 3251 3252 3252 3253 3254 3255 3255 3256 3257 3257 3258 3259 3259 3259 3259 3259 3260 3260 3261 3261 3262 3262 3262 3262 3263 3263 3263 3264 3264 3264 3264 3265 3265 3265 3265 3265 3265 3265 3265 3266 3266 3265 3266 3266 3265 3265 3265 3264 3264 3264 3263 3261
3218 3219 3221 3223 3224 3225 3227 3228 3230 3231 3232 3233 3234 3235 3236 3237 3238 3239 3240 3241 3242 3243 3243 3244 3245 3246 3246 3247 3248 3248 3249 3249 3250 3251 3252 3252 3253 3254 3255 3255 3256 3257 3257 3258 3258 3259 3259 3260 3260 3260 3261 3261 3261 3262 3262 3262 3263 3263 3263 3263 3263 3263 3263 3264 3264 3265 3265 3265 3265 3266 3265 3265 3265 3265 3265 3265 3265 3264 3264 3264 3264 3264 3263 3262 3261
3218 3218 3220 3222 3223 3225 3226 3228 3229 3230 3231 3233 3234 3235 3236 3237 3238 3240 3240 3241 3242 3243 3243 3244 3245 3245 3246 3247 3248 3248 3249 3250 3250 3251 3252 3252 3253 3254 3254 3255 3256 3256 3257 3257 3258 3259 3259 3260 3260 3260 3261 3261 3261 3262 3262 3262 3263 3263 3263 3263 3263 3263 3263 3264 3265 3265 3265 3265 3266 3265 3265 3265 3265 3264 3264 3264 3264 3264 3264 3263 3263 3263 3262 3261 3260
3217 3218 3219 3221 3223 3224 3226 3227 3229 3230 3231 3232 3234 3235 3236 3237 3238 3239 3240 3241 3242 3243 3243 3244 3244 3245 3246 3247 3247 3248 3249 3250 3251 3251 3252 3253 3253 3254 3254 3255 3256 3256 3257 3257 3257 3258 3259 3260 3260 3260 3261 3261 3261 3261 3262 3262 3262 3262 3262 3262 3263 3263 3263 3264 3264 3264 3265 3265 3265 3265 3265 3265 3264 3264 3264 3264 3264 3264 3263 3263 3262 3261 3261 3260 3258